Volver al catálogo

IRIDIUM 147

ActivoComunicacionesPO
NORAD 43480·PAYLOAD·🇺🇸 United States

Lanzado May 22, 2018 desde Vandenberg Space Force Base

Loading…

Próximos Pases (próximas 24 horas)

TLE

ActualizadoSource: CelesTrak SupGP

Época: Sep 14, 2026, 22:05 UTC

1 43480C 18047E   26257.92048611  .00001526  00000+0  54556-3 0  2570
2 43480  86.3946  50.7862 0002126  92.3480  12.1452 14.34212730    15

Sigue IRIDIUM 147 en tiempo real con AllMySat

Download on the App Store